カタログに戻る

FREGAT NO. 142-602

運用中PO
NORAD 67248·ROCKET BODY·🇷🇺 Russia
この衛星名は、まだ公式ソースで確認されていません。

打ち上げ Dec 28, 2025 から Vostochny Cosmodrome

Loading…

次のパス (今後24時間)

TLE

最新Source: Space-Track

元期: Sep 14, 2026, 14:12 UTC

1 67248U 25313A   26257.59204889  .00000995  00000-0  10349-3 0  9991
2 67248  97.5335 314.9793 0277938  49.6263 312.8851 14.67454683 38134

AllMySatでFREGAT NO. 142-602をリアルタイム追跡

Download on the App Store